Powrót do katalogu

INTELSAT 33E DEB

AktywnyMEO
NORAD 64394·DEBRIS· XX

Wystrzelony Aug 24, 2016 z Guiana Space Centre

Loading…

Następne Przeloty (najbliższe 24 godziny)

TLE

ŚwieżeSource: Space-Track

Epoka: Sep 14, 2026, 18:19 UTC

1 64394U 16053Y   26257.76319936 -.00000128  00000-0  00000-0 0  9999
2 64394   1.4911  47.8055 0620111 337.8024  20.1834  1.08359941  7411

Śledź INTELSAT 33E DEB w czasie rzeczywistym z AllMySat

Download on the App Store